Location: Six Mile Lake
(44.9000°N, 79.7170°W)
Time: 12:45:23
(UTC-04:00)

ZACube-1 - Pass Details

Date: 05 July 2022
Orbit: 582 x 661 km, 97.6° (Epoch: 09 August)

Event Time Altitude Azimuth Distance (km) Brightness Sun altitude
Rises 04:15:00 0° 26° (NNE) 2,970 ? -11.9°
Reaches altitude 10° 04:17:41 10° 43° (NE) 2,065 ? -11.5°
Maximum altitude 04:21:08 21° 93° (E) 1,462 ? -11.1°
Drops below altitude 10° 04:24:35 10° 142° (SE) 2,071 ? -10.7°
Sets 04:27:16 0° 159° (SSE) 2,981 ? -10.4°
